Regional Weather Roundup
Issued by NWS

Home | Current Version | Previous Version | Text Only | Print | Product List | Glossary On
Versions: 1 2 3 4 5 6 7 8 9 10 11 12 13 14 15 16 17 18 19 20 21 22 23 24 25 26 27 28 29 30 31 32 33 34 35 36 37 38 39 40 41 42 43 44 45 46 47 48 49 50
000
ASUS45 KABQ 181601
RWRNM
WEATHER ROUNDUP FOR NEW MEXICO
NATIONAL WEATHER SERVICE ALBUQUERQUE NM
1000 AM MDT THU SEP 18 2014

NOTE: "FAIR" MEANS FEW OR NO CLOUDS BELOW 12,000 FEET AGL WITH NO
       SIGNIFICANT WEATHER OR OBSTRUCTIONS TO VISION.

      THIS PRODUCT IS RELEASED AS TWO VERSIONS.  ONE VERSION NEAR
      THE TOP OF THE HOUR CONTAINING PRELIMINARY DATA FROM ALBUQUERQUE
      AND OTHER STATIONS.  A FINAL VERSION WITH ADDITIONAL DATA IS
      ISSUED ABOUT 10 MINUTES AFTER THE HOUR.

NMZ501-503-504-510>518-181700-
NORTHWEST PLATEAU/NORTHCENTRAL MOUNTAINS

CITY           SKY/WX    TMP DP  RH WIND       PRES   REMARKS
FARMINGTON     SUNNY     65  48  54 VRB6      30.10S
LOS ALAMOS     SUNNY     63  46  55 NE3       30.21S
SANTA FE       SUNNY     66  41  40 N17       30.14F
TAOS           SUNNY     61  37  41 N3        30.22S
ANGEL FIRE     FAIR      52  35  51 CALM      30.30F

$$
NMZ402-403-502-505>509-181700-
WESTCENTRAL MOUNTAINS/SOUTHWEST MOUNTAINS

CITY           SKY/WX    TMP DP  RH WIND       PRES   REMARKS
GALLUP         SUNNY     66  49  54 NE5       30.14F
SILVER CITY    LGT RAIN  61  57  88 E12       30.08S

$$
NMZ407-409-411-412-181700-
SOUTHERN DESERTS

CITY           SKY/WX    TMP DP  RH WIND       PRES   REMARKS
LORDSBURG      LGT RAIN  63  61  94 MISG      29.99R
DEMING         LGT RAIN  64  63  96 E14       30.01R FOG
LAS CRUCES     CLOUDY    64  63  95 CALM      30.04R
ALAMOGORDO     CLOUDY    66  66 100 S5        30.04R
T OR C         CLOUDY    67  61  81 N6        30.04F

$$
NMZ519>523-181700-
CENTRAL VALLEYS/CENTRAL HIGHLANDS

CITY           SKY/WX    TMP DP  RH WIND       PRES   REMARKS
ALBUQUERQUE    MOSUNNY   65  52  62 NW5       30.10S
DOUBLE EAGLE   MOSUNNY   64  52  63 NE8       30.12S
CLINES CORNERS SUNNY     67  44  43 VRB3      30.17S
BELEN          FAIR      67  56  67 NE6       30.09R
SOCORRO        CLOUDY    68  63  85 N3        30.06S

$$
NMZ524>526-539-540-181700-
SOUTHCENTRAL MOUNTAINS

CITY           SKY/WX    TMP DP  RH WIND       PRES   REMARKS
RUIDOSO        NOT AVBL

$$
NMZ527>531-181700-
NORTHEAST HIGHLANDS/NORTHEAST PLAINS

CITY           SKY/WX    TMP DP  RH WIND       PRES   REMARKS
LAS VEGAS      SUNNY     68  45  43 N9        30.18S
RATON          SUNNY     66  47  50 E5        30.15S
CLAYTON        SUNNY     74  52  46 E7        30.08R

$$
NMZ532>537-181700-
EASTCENTRAL PLAINS

CITY           SKY/WX    TMP DP  RH WIND       PRES   REMARKS
TUCUMCARI      MOSUNNY   72  62  71 CALM      30.02F
CANNON AFB     NOT AVBL
CLOVIS AIRPORT   N/A     63  61  94 SE12      30.08R

$$
NMZ028-029-538-181700-
SOUTHEAST PLAINS

CITY           SKY/WX    TMP DP  RH WIND       PRES   REMARKS
ROSWELL        CLOUDY    69  64  84 SW5       29.99F
CARLSBAD       CLOUDY    69  67  93 CALM      29.97F
HOBBS          MOSUNNY   68  66  94 SW10      30.01R


$$


USA.gov is the U.S. government's official web portal to all federal, state and local government web resources and services.